ALA7422 KPBI-KBOS

Flight info

Callsign ALA7422
Flight time N/A
Altitude 41000
Route SLIDZ2 LENDS GRUBR Y299 SEELO WAALT Q131 EARZZ JAMIE CONFR Q133 JFK ROBUC3
Aircraft C25C/M-SDE2E3FGHRWXY/LB1

Departure

Time 2026-04-09 22:40
Airport Palm Beach International Airport (KPBI)

Arrival

Time N/A
Airport Boston Logan International Airport (KBOS)
Time Latitude Longitude Altitude Speed Heading
2026-04-09 21:48 26.68690 -80.09002 22 ft 0 kts 92°
2026-04-09 22:20 26.68690 -80.09003 22 ft 2 kts 92°
2026-04-09 22:20 26.68691 -80.09024 23 ft 2 kts 99°
2026-04-09 22:21 26.68701 -80.09032 24 ft 2 kts 210°
2026-04-09 22:21 26.68708 -80.09015 24 ft 3 kts 268°
2026-04-09 22:21 26.68708 -80.09003 23 ft 0 kts 270°
2026-04-09 22:24 26.68690 -80.09002 22 ft 0 kts 92°
2026-04-09 22:27 26.68693 -80.08995 22 ft 3 kts 45°
2026-04-09 22:27 26.68707 -80.09010 23 ft 0 kts 269°
2026-04-09 22:28 26.68706 -80.09014 23 ft 2 kts 250°
2026-04-09 22:28 26.68686 -80.09067 21 ft 9 kts 242°
2026-04-09 22:29 26.68636 -80.09091 20 ft 9 kts 182°
2026-04-09 22:29 26.68564 -80.09093 18 ft 12 kts 182°
2026-04-09 22:29 26.68482 -80.09096 18 ft 12 kts 174°
2026-04-09 22:29 26.68448 -80.09035 18 ft 9 kts 92°
2026-04-09 22:30 26.68446 -80.08968 18 ft 8 kts 92°
2026-04-09 22:30 26.68444 -80.08916 19 ft 6 kts 91°
2026-04-09 22:30 26.68442 -80.08876 19 ft 5 kts 98°
2026-04-09 22:30 26.68414 -80.08839 19 ft 9 kts 167°
2026-04-09 22:31 26.68360 -80.08857 18 ft 9 kts 221°
2026-04-09 22:31 26.68348 -80.08913 17 ft 7 kts 272°
2026-04-09 22:31 26.68349 -80.08928 17 ft 0 kts 274°
2026-04-09 22:31 26.68353 -80.09014 18 ft 13 kts 273°
2026-04-09 22:32 26.68357 -80.09107 19 ft 11 kts 275°
2026-04-09 22:32 26.68370 -80.09170 20 ft 6 kts 257°
2026-04-09 22:32 26.68363 -80.09234 19 ft 8 kts 272°
2026-04-09 22:32 26.68365 -80.09299 19 ft 9 kts 273°
2026-04-09 22:33 26.68368 -80.09360 19 ft 7 kts 272°
2026-04-09 22:33 26.68368 -80.09369 19 ft 0 kts 274°
2026-04-09 22:35 26.68368 -80.09373 19 ft 6 kts 273°
2026-04-09 22:35 26.68370 -80.09431 20 ft 7 kts 272°
2026-04-09 22:36 26.68373 -80.09477 22 ft 6 kts 274°
2026-04-09 22:36 26.68374 -80.09512 23 ft 7 kts 273°
2026-04-09 22:36 26.68378 -80.09593 25 ft 17 kts 273°
2026-04-09 22:36 26.68385 -80.09736 26 ft 19 kts 272°
2026-04-09 22:37 26.68392 -80.09891 26 ft 21 kts 273°
2026-04-09 22:37 26.68398 -80.10046 27 ft 19 kts 274°
2026-04-09 22:37 26.68404 -80.10196 25 ft 20 kts 273°
2026-04-09 22:37 26.68411 -80.10341 21 ft 11 kts 274°
2026-04-09 22:38 26.68414 -80.10434 20 ft 14 kts 272°
2026-04-09 22:38 26.68420 -80.10539 18 ft 10 kts 274°
2026-04-09 22:38 26.68424 -80.10641 17 ft 17 kts 272°
2026-04-09 22:38 26.68429 -80.10760 16 ft 18 kts 268°
2026-04-09 22:39 26.68420 -80.10795 15 ft 0 kts 236°
2026-04-09 22:39 26.68414 -80.10803 15 ft 8 kts 227°
2026-04-09 22:39 26.68348 -80.10817 14 ft 10 kts 158°
2026-04-09 22:39 26.68317 -80.10735 16 ft 27 kts 92°
2026-04-09 22:40 26.68291 -80.10193 28 ft 114 kts 93°
2026-04-09 22:40 26.68219 -80.09025 141 ft 182 kts 89°
2026-04-09 22:40 26.68141 -80.07436 471 ft 211 kts 91°
2026-04-09 22:40 26.68014 -80.05818 1033 ft 223 kts 91°
2026-04-09 22:41 26.68180 -80.04022 1552 ft 242 kts 76°
2026-04-09 22:41 26.68764 -80.02205 1675 ft 216 kts 60°
2026-04-09 22:41 26.69767 -80.01222 2114 ft 178 kts 25°
2026-04-09 22:41 26.71024 -80.01148 1930 ft 197 kts 354°
2026-04-09 22:42 26.72331 -80.01412 2091 ft 180 kts
2026-04-09 22:42 26.73451 -80.01173 2352 ft 162 kts 44°
2026-04-09 22:42 26.73641 -79.99760 1250 ft 222 kts 85°
2026-04-09 22:42 26.73859 -79.98213 2090 ft 185 kts 73°
2026-04-09 22:43 26.74390 -79.96867 2165 ft 200 kts 55°
2026-04-09 22:43 26.75501 -79.95899 3141 ft 203 kts 23°
2026-04-09 22:43 26.76963 -79.95671 4118 ft 224 kts 15°
2026-04-09 22:43 26.78455 -79.95043 4812 ft 238 kts 22°
2026-04-09 22:44 26.80139 -79.94716 5502 ft 252 kts 11°
2026-04-09 22:44 26.81889 -79.94370 6189 ft 258 kts 18°
2026-04-09 22:44 26.83628 -79.93789 6875 ft 263 kts 21°
2026-04-09 22:44 26.85401 -79.93207 7536 ft 268 kts 19°
2026-04-09 22:45 26.87191 -79.92563 8207 ft 272 kts 21°
2026-04-09 22:45 26.88408 -79.92122 8666 ft 274 kts 20°
2026-04-09 22:45 26.90232 -79.91456 9353 ft 277 kts 20°
2026-04-09 22:45 26.92068 -79.90759 10050 ft 279 kts 20°
2026-04-09 22:46 26.93914 -79.90055 10682 ft 282 kts 20°
2026-04-09 22:46 26.95768 -79.89308 11327 ft 284 kts 20°
2026-04-09 22:46 26.97632 -79.88543 11982 ft 286 kts 20°
2026-04-09 22:46 26.99478 -79.87752 12647 ft 289 kts 19°
2026-04-09 22:47 27.01352 -79.86922 13358 ft 290 kts 20°
2026-04-09 22:47 27.03221 -79.86072 14109 ft 290 kts 20°
2026-04-09 22:47 27.05077 -79.85189 14797 ft 290 kts 19°
2026-04-09 22:47 27.06928 -79.84283 15500 ft 290 kts 20°
2026-04-09 22:48 27.08773 -79.83353 16220 ft 291 kts 21°